Location: Burland Observatory
(39.4088°N, 105.4217°W)
Time: 19:26:40
(UTC-07:00)

Explorer 7 - Pass Details

Date: 06 December 2019
Orbit: 485 x 679 km, 50.3° (Epoch: 23 January)

Event Time Altitude Azimuth Distance (km) Brightness Sun altitude
Rises 17:10:56 0° 236° (SW) 2,986 12.8 -6.5°
Reaches altitude 10° 17:13:16 10° 238° (WSW) 2,090 11.5 -6.9°
Maximum altitude 17:18:08 80° 325° (NW) 689 7.3 -7.8°
Drops below altitude 10° 17:23:02 10° 53° (NE) 2,106 9.2 -8.7°
Enters shadow 17:23:03 10° 53° (NE) 2,112 9.2 -8.7°
